Flag Weather past 2 weeks in Maputo, Mozambique

Now
84 °F

Partly sunny.


Feels Like: 87 °F
Forecast: 72 / 93 °F
Wind: 13 mph from North

Location: Maputo / Mavalane

Current Time: Nov 23, 2014 at 10:48:13 AM

Latest Report: Nov 23, 2014 at 10:00 AM


Visibility: N/A

Pressure: 30.01 "Hg

Humidity: 58%

Dew point: 68 °F

Location of MaputoLocation

Historic Weather in Maputo — Graph

°F

Maputo temperature yesterday

Maximum temperature yesterday: 86 °F (at 2:00 PM)
Minimum temperature yesterday: 73 °F (at 2:00 AM)
Average temperature yesterday: 79 °F

Past Weeks' High & Low Weather Summary

 TemperatureHumidityPressure
High99 °F (Nov 9, 1:00 PM)100% (Nov 11, 12:00 AM)30.30 "Hg (Nov 11, 12:00 AM)
Low61 °F (Nov 17, 12:00 AM)25% (Nov 9, 1:00 PM)29.71 "Hg (Nov 9, 3:00 PM)
Average75 °F74%30.00 "Hg
* Reported Nov 8 10:00 AM — Nov 23 10:00 AM, Maputo, Weather by CustomWeather, © 2014

Note: Actual official high and low records may vary slightly from our data, if they occured in-between our weather recording intervals... More about our weather records

Advertising

Maputo weather history for previous 24 hours

 ConditionsComfort  
Time TempWeatherWind HumidityBarometerVisibility
10:00 AM
Nov 23
84 °FPartly sunny.13 mph58%30.01 "HgN/A
9:00 AM82 °FPartly sunny.12 mph62%30.04 "HgN/A
8:00 AM79 °FScattered clouds.13 mph70%30.04 "HgN/A
7:00 AM77 °FPassing clouds.12 mph74%30.04 "HgN/A
6:00 AM73 °FPassing clouds.10 mph83%30.04 "HgN/A
5:00 AM72 °FPassing clouds.8 mph88%30.04 "HgN/A
4:00 AM72 °FSunny.7 mph88%30.04 "Hg10 mi
2:00 AM73 °FPassing clouds.6 mph89%30.04 "HgN/A
12:00 AM73 °FPassing clouds.6 mph89%30.04 "HgN/A
11:00 PM
Nov 22
73 °FPassing clouds.6 mph89%30.07 "HgN/A
10:00 PM75 °FPassing clouds.8 mph83%30.07 "HgN/A
8:00 PM77 °FPassing clouds.12 mph79%30.04 "HgN/A
7:00 PM79 °FPassing clouds.13 mph74%30.01 "HgN/A
6:00 PM79 °FPassing clouds.16 mph74%30.01 "HgN/A
5:00 PM81 °FPassing clouds.16 mph70%29.98 "HgN/A
4:00 PM81 °FPassing clouds.18 mph70%29.98 "HgN/A
3:00 PM82 °FPassing clouds.18 mph66%30.01 "HgN/A
2:00 PM86 °FPassing clouds.17 mph52%30.04 "HgN/A
1:00 PM84 °FScattered clouds.14 mph58%30.07 "HgN/A
12:00 PM84 °FScattered clouds.12 mph58%30.09 "HgN/A
11:00 AM82 °FPartly sunny.9 mph62%30.09 "HgN/A
10:00 AM81 °FPartly sunny.12 mph70%30.12 "HgN/A
Weather by CustomWeather, © 2014

See weather overviewHow to use our weather pages